Showing default

SIRIUS XM-10, 64290

Orbit data source: Space-Track

SIRIUS XM-10, 64290 is a payload satellite owned by Sirius XM (US) in GEO that was launched on Sat, 07 Jun 2025 UTC via an FALCON 9 launch vehicle from the Air Force Eastern Test Range (AFETR). Payload-class satellites include a variety of spacecraft equipped with specific instruments for various scientific and technological missions. These include communications satellites like Starlink; space stations such as the ISS; scientific satellites like the Hubble; Earth observation satellites from companies like Planet Labs, Umbra, and HawkEye 360; GPS; miniature CubeSats for education and research; and military/defense satellites.

Loading next visibility...
Identifier
64290, 2025-122A
Orbit
GEO
Country
Flag of USUS
Related business
Manufacturer
Maxar Space Sol
Mission
Operational Commercial Communications
Bus & Motor
LS-1300, R-4D
Mass
~6,400 kg wet, ~2,800 kg dry
Launch date (UTC)
2025-06-07 (6 months ago)
Launch vehicle
FALCON 9
Launch site
Air Force Eastern Test Range (AFETR)
Object type
Payload
Rocket body
Debris
Shape & HBR
Box + 2 Pan, 15.0 m
Radar Cross Section
98.149 m², Large (>1 m²)

Expand to show TLE details & history
Last TLE update: 9 hours ago

TLE from 9 hours ago
0 SIRIUS XM-10
1 64290U 25122A   25355.20008477  .00000006  00000-0  00000+0 0  9996
2 64290   0.0197  24.5432 0002480 335.4093  45.9379  1.00272991  1897
Epoch: 2025-12-21T04:48Z
TLE epoch observation values (Epoch: 2025-12-21T04:48:07.324Z)
Latitude
0.02281°
Longitude
-116.14461°
Altitude
35,778.51 km
Speed
3.075 km/s
True Right ascension
03h 03m 36s
True Declination
0° 01' 22"
Sunlit
Object was in daylight at epoch
Visualization orbit readout
Latitude
Unknown
Longitude
Unknown
Altitude
Unknown
Speed
Unknown
Apparent Right ascension
Unknown
Apparent Declination
Unknown
Sunlit
N/A
Visualization observer readout
Local Sidereal Time
12:23:23
Azimuth
Unknown
Elevation
Unknown
Doppler factor
Unknown
Orbital elements
Apogee altitude
35,797.784 km
Perigee altitude
35,776.87 km
Semi-major axis
42,165.464 km
Eccentricity
0.00025
Inclination
0.0197°
RAAN
24.5432°
Arg. of periapsis
335.4093°
True anomaly
45.95833°
Mean anomaly
45.9379°
Eccentric anomaly
45.94811°
Mean motion
0.25067 °/min
Orbital period
1,436.13 mins
BSTAR
0
Loading maneuver chart data...
Computing Atmospheric mass density...
Loading historical data...
Loading historical data...
Loading historical data...
Loading historical data...
Loading historical data...
Loading historical data...
Loading historical data...
Other satellites on launch #122 in the year 2025 (2025-06-07 UTC)

Documentation

Showing up to 5 results
|